DELTA 1 DEB, 18472

Orbit data source: Space-Track

DELTA 1 DEB, 18472 is space debris in SSO originally from a launch on Tue, 06 Nov 1973 UTC launched from the Air Force Western Test Range (AFWTR). Debris objects in space refer to the collection of defunct objects orbiting the Earth. Examples of debris include non-operational satellites, rocket bodies, and fragments generated from explosions, collisions, or faulty payload assembly.

Loading next visibility...
Identifier
18472, 1973-086GV
Orbit
SSO
Country
Flag of USUS
Related business
Manufacturer
Unknown
Mission
Spacecraft
Bus & Motor
Unknown
Mass
Unknown
Launch date (UTC)
1973-11-06 (53 years ago)
Launch vehicle
Unknown
Launch site
Air Force Western Test Range (AFWTR)
Object type
Payload
Rocket body
Debris
Shape & HBR
Unknown shape, 0.1 m
Radar Cross Section
Medium (>0.1 m² and <1 m²)

Expand to show TLE details & history
Last TLE update: 12 hours ago

TLE from 12 hours ago
0 DELTA 1 DEB
1 18472U 73086GV  26207.08763484 -.00000037  00000-0  28860-4 0  9992
2 18472 101.0320 254.9247 0014326 316.6884  71.8168 12.77557557929345
Epoch: 2026-07-26T02:06Z
TLE epoch observation values (Epoch: 2026-07-26T02:06:11.650Z)
Latitude
28.12607°
Longitude
-86.36639°
Altitude
1,351.09 km
Speed
7.187 km/s
True Right ascension
16h 35m 53s
True Declination
27° 59' 39"
Sunlit
Object was in daylight at epoch
Visualization orbit readout
Latitude
Unknown
Longitude
Unknown
Altitude
Unknown
Speed
Unknown
Apparent Right ascension
Unknown
Apparent Declination
Unknown
Sunlit
N/A
Visualization observer readout
Local Sidereal Time
03:13:22
Azimuth
Unknown
Elevation
Unknown
Doppler factor
Unknown
Orbital elements
Apogee altitude
1,359.845 km
Perigee altitude
1,337.706 km
Semi-major axis
7,726.912 km
Eccentricity
0.00143
Inclination
101.032°
RAAN
254.9247°
Arg. of periapsis
316.6884°
True anomaly
71.97285°
Mean anomaly
71.8168°
Eccentric anomaly
71.89482°
Mean motion
3.19547 °/min
Orbital period
112.66 mins
BSTAR
0.00002886
Loading maneuver chart data...
Computing Atmospheric mass density...
Loading historical data...
Loading historical data...
Loading historical data...
Loading historical data...
Loading historical data...
Loading historical data...
Loading historical data...

Documentation

Showing up to 5 results
|